Time,TemperatureF,DewpointF,PressureIn,WindDirection,WindDirectionDegrees,WindSpeedMPH,WindSpeedGustMPH,Humidity,HourlyPrecipIn,Conditions,Clouds,dailyrainin,SoftwareType,DateUTC
2013-07-11 00:03:00,70.0,66.0,29.67,SW,235,0.0,2.0,87,0.00,,,0.00,weatherlink.com 1.10,2013-07-11 04:03:00,
2013-07-11 00:18:00,69.3,66.0,29.66,SW,221,0.0,0.0,89,0.01,,,0.01,weatherlink.com 1.10,2013-07-11 04:18:00,
2013-07-11 00:33:00,69.1,66.0,29.67,SSW,197,0.0,0.0,91,0.01,,,0.01,weatherlink.com 1.10,2013-07-11 04:33:00,
2013-07-11 00:48:00,68.3,66.0,29.67,South,186,2.0,4.0,92,0.01,,,0.01,weatherlink.com 1.10,2013-07-11 04:48:00,
2013-07-11 01:03:00,68.6,66.0,29.66,SW,234,0.0,0.0,91,0.01,,,0.01,weatherlink.com 1.10,2013-07-11 05:03:00,
2013-07-11 01:18:00,69.6,66.0,29.66,WSW,251,1.0,4.0,87,0.00,,,0.01,weatherlink.com 1.10,2013-07-11 05:18:00,
2013-07-11 01:33:00,69.4,66.0,29.66,WNW,284,1.0,3.0,88,0.00,,,0.01,weatherlink.com 1.10,2013-07-11 05:33:00,
2013-07-11 01:48:00,69.1,66.0,29.66,West,269,1.0,3.0,89,0.00,,,0.01,weatherlink.com 1.10,2013-07-11 05:48:00,
2013-07-11 02:03:00,69.1,66.0,29.66,WSW,246,1.0,4.0,89,0.00,,,0.01,weatherlink.com 1.10,2013-07-11 06:03:00,
2013-07-11 02:18:00,69.6,66.0,29.66,WNW,289,3.0,5.0,87,0.00,,,0.01,weatherlink.com 1.10,2013-07-11 06:18:00,
2013-07-11 02:33:00,69.8,66.0,29.66,West,263,5.0,6.0,86,0.00,,,0.01,weatherlink.com 1.10,2013-07-11 06:33:00,
2013-07-11 02:48:00,70.0,66.0,29.66,WNW,299,6.0,9.0,86,0.00,,,0.01,weatherlink.com 1.10,2013-07-11 06:48:00,
2013-07-11 03:03:00,69.6,66.0,29.66,NW,305,5.0,7.0,88,0.00,,,0.01,weatherlink.com 1.10,2013-07-11 07:03:00,
2013-07-11 03:18:00,69.3,66.0,29.66,NW,324,4.0,8.0,90,0.00,,,0.01,weatherlink.com 1.10,2013-07-11 07:18:00,
2013-07-11 03:33:00,69.1,66.0,29.67,NNW,348,1.0,6.0,91,0.00,,,0.01,weatherlink.com 1.10,2013-07-11 07:33:00,
2013-07-11 03:48:00,68.5,65.0,29.68,North,355,2.0,7.0,89,0.00,,,0.01,weatherlink.com 1.10,2013-07-11 07:48:00,
2013-07-11 04:03:00,67.8,65.0,29.68,NW,320,4.0,6.0,90,0.00,,,0.01,weatherlink.com 1.10,2013-07-11 08:03:00,
2013-07-11 04:18:00,67.6,64.0,29.69,NW,313,3.0,6.0,88,0.00,,,0.01,weatherlink.com 1.10,2013-07-11 08:18:00,
2013-07-11 04:33:00,67.8,64.0,29.69,NNW,341,3.0,6.0,88,0.00,,,0.01,weatherlink.com 1.10,2013-07-11 08:33:00,
2013-07-11 04:48:00,67.5,64.0,29.70,NNW,330,4.0,6.0,89,0.00,,,0.01,weatherlink.com 1.10,2013-07-11 08:48:00,
2013-07-11 05:03:00,67.2,64.0,29.71,NNW,347,2.0,7.0,89,0.00,,,0.01,weatherlink.com 1.10,2013-07-11 09:03:00,
2013-07-11 05:18:00,66.9,64.0,29.71,North,350,1.0,3.0,89,0.00,,,0.01,weatherlink.com 1.10,2013-07-11 09:18:00,
2013-07-11 05:33:00,66.5,63.0,29.72,North,5,3.0,5.0,89,0.00,,,0.01,weatherlink.com 1.10,2013-07-11 09:33:00,
2013-07-11 05:48:00,66.1,62.0,29.73,NNW,342,2.0,6.0,87,0.00,,,0.01,weatherlink.com 1.10,2013-07-11 09:48:00,
2013-07-11 06:03:00,66.0,62.0,29.73,NNW,331,2.0,4.0,86,0.00,,,0.01,weatherlink.com 1.10,2013-07-11 10:03:00,
2013-07-11 06:18:00,65.9,62.0,29.74,NW,322,0.0,3.0,86,0.00,,,0.01,weatherlink.com 1.10,2013-07-11 10:18:00,
2013-07-11 06:33:00,65.9,62.0,29.74,NNW,330,1.0,2.0,86,0.00,,,0.01,weatherlink.com 1.10,2013-07-11 10:33:00,
2013-07-11 06:48:00,65.5,61.0,29.75,NNW,334,0.0,3.0,85,0.00,,,0.01,weatherlink.com 1.10,2013-07-11 10:48:00,
2013-07-11 07:03:00,65.0,60.0,29.75,NW,326,2.0,4.0,85,0.00,,,0.01,weatherlink.com 1.10,2013-07-11 11:03:00,
2013-07-11 07:19:00,64.6,60.0,29.76,NW,320,3.0,5.0,84,0.00,,,0.01,weatherlink.com 1.10,2013-07-11 11:19:00,
2013-07-11 07:34:00,64.6,60.0,29.76,NW,311,3.0,6.0,85,0.00,,,0.01,weatherlink.com 1.10,2013-07-11 11:34:00,
2013-07-11 07:49:00,64.8,60.0,29.76,NW,319,5.0,6.0,85,0.00,,,0.01,weatherlink.com 1.10,2013-07-11 11:49:00,
2013-07-11 08:04:00,64.7,59.0,29.77,NNW,342,5.0,8.0,83,0.00,,,0.01,weatherlink.com 1.10,2013-07-11 12:04:00,
2013-07-11 08:19:00,65.0,60.0,29.77,NW,309,6.0,7.0,84,0.00,,,0.01,weatherlink.com 1.10,2013-07-11 12:19:00,
2013-07-11 08:34:00,65.2,61.0,29.77,WNW,286,4.0,8.0,85,0.00,,,0.01,weatherlink.com 1.10,2013-07-11 12:34:00,
2013-07-11 08:49:00,64.9,60.0,29.77,NNW,333,4.0,9.0,83,0.00,,,0.01,weatherlink.com 1.10,2013-07-11 12:49:00,
2013-07-11 09:04:00,65.1,61.0,29.78,NW,319,5.0,13.0,85,0.00,,,0.01,weatherlink.com 1.10,2013-07-11 13:04:00,
2013-07-11 09:19:00,65.3,60.0,29.78,NW,311,4.0,9.0,84,0.00,,,0.01,weatherlink.com 1.10,2013-07-11 13:19:00,
2013-07-11 09:34:00,65.9,60.0,29.79,NW,309,5.0,9.0,82,0.00,,,0.01,weatherlink.com 1.10,2013-07-11 13:34:00,
2013-07-11 09:49:00,65.6,60.0,29.79,NNW,327,4.0,11.0,83,0.00,,,0.01,weatherlink.com 1.10,2013-07-11 13:49:00,
2013-07-11 10:27:00,66.3,61.0,29.79,NNW,346,2.0,10.0,82,0.00,,,0.01,weatherlink.com 1.10,2013-07-11 14:27:00,
2013-07-11 10:33:00,66.4,61.0,29.79,NW,314,5.0,8.0,83,0.00,,,0.01,weatherlink.com 1.10,2013-07-11 14:33:00,
2013-07-11 10:48:00,66.3,61.0,29.79,WNW,298,2.0,7.0,82,0.00,,,0.01,weatherlink.com 1.10,2013-07-11 14:48:00,
2013-07-11 11:19:00,67.3,61.0,29.80,NW,320,4.0,9.0,81,0.00,,,0.01,weatherlink.com 1.10,2013-07-11 15:19:00,
2013-07-11 11:34:00,67.3,62.0,29.80,North,355,2.0,7.0,82,0.00,,,0.01,weatherlink.com 1.10,2013-07-11 15:34:00,
2013-07-11 11:49:00,67.7,62.0,29.80,NNW,344,2.0,9.0,81,0.00,,,0.01,weatherlink.com 1.10,2013-07-11 15:49:00,
2013-07-11 12:04:00,67.6,61.0,29.80,NW,315,2.0,8.0,80,0.00,,,0.01,weatherlink.com 1.10,2013-07-11 16:04:00,
2013-07-11 12:19:00,68.5,62.0,29.80,NNW,346,4.0,7.0,80,0.00,,,0.01,weatherlink.com 1.10,2013-07-11 16:19:00,
2013-07-11 12:34:00,69.0,62.0,29.81,North,5,3.0,6.0,77,0.00,,,0.01,weatherlink.com 1.10,2013-07-11 16:34:00,
2013-07-11 12:49:00,70.0,63.0,29.80,North,355,2.0,6.0,78,0.00,,,0.01,weatherlink.com 1.10,2013-07-11 16:49:00,
2013-07-11 13:04:00,70.3,63.0,29.80,North,355,4.0,8.0,78,0.00,,,0.01,weatherlink.com 1.10,2013-07-11 17:04:00,
2013-07-11 13:34:00,70.7,63.0,29.80,NE,34,7.0,7.0,76,0.00,,,0.01,weatherlink.com 1.10,2013-07-11 17:34:00,
2013-07-11 13:49:00,70.1,63.0,29.80,North,360,4.0,7.0,78,0.00,,,0.01,weatherlink.com 1.10,2013-07-11 17:49:00,
2013-07-11 14:04:00,70.1,63.0,29.80,North,355,3.0,8.0,78,0.00,,,0.01,weatherlink.com 1.10,2013-07-11 18:04:00,
2013-07-11 14:18:00,70.1,62.9,29.80,North,5,4.0,11.0,78,0.00,,,0.01,Wunderground v.1.15,2013-07-11 18:18:00,
2013-07-11 14:24:00,70.7,63.5,29.80,North,355,4.0,4.0,78,0.00,,,0.01,Wunderground v.1.15,2013-07-11 18:24:00,
2013-07-11 14:30:00,71.1,63.1,29.80,WNW,297,4.0,11.0,76,0.00,,,0.01,Wunderground v.1.15,2013-07-11 18:30:00,
2013-07-11 14:35:00,71.3,63.0,29.80,WNW,285,4.0,9.0,75,0.00,,,0.01,weatherlink.com 1.10,2013-07-11 18:35:00,
2013-07-11 14:42:00,71.7,62.6,29.80,NNE,22,5.0,11.0,73,0.00,,,0.01,Wunderground v.1.15,2013-07-11 18:42:00,
2013-07-11 14:48:00,72.0,63.6,29.80,NW,325,4.0,11.0,75,0.00,,,0.01,Wunderground v.1.15,2013-07-11 18:48:00,
2013-07-11 14:54:00,71.7,62.6,29.80,North,360,3.0,3.0,73,0.00,,,0.01,Wunderground v.1.15,2013-07-11 18:54:00,
2013-07-11 15:06:00,72.4,63.3,29.80,North,5,4.0,5.0,73,0.00,,,0.01,Wunderground v.1.15,2013-07-11 19:06:00,
2013-07-11 15:12:00,73.0,63.8,29.80,NW,305,4.0,6.0,73,0.00,,,0.01,Wunderground v.1.15,2013-07-11 19:12:00,
2013-07-11 15:18:00,72.6,62.3,29.80,NW,317,4.0,4.0,70,0.00,,,0.01,Wunderground v.1.15,2013-07-11 19:18:00,
2013-07-11 15:24:00,73.1,63.1,29.80,NW,311,4.0,7.0,71,0.00,,,0.01,Wunderground v.1.15,2013-07-11 19:24:00,
2013-07-11 15:30:00,73.1,63.1,29.80,North,355,4.0,5.0,71,0.00,,,0.01,Wunderground v.1.15,2013-07-11 19:30:00,
2013-07-11 15:35:00,73.0,63.0,29.80,NNW,328,6.0,10.0,72,0.00,,,0.01,weatherlink.com 1.10,2013-07-11 19:35:00,
2013-07-11 15:42:00,73.0,63.4,29.80,NW,325,5.0,6.0,72,0.00,,,0.01,Wunderground v.1.15,2013-07-11 19:42:00,
2013-07-11 15:48:00,72.9,62.5,29.80,North,355,4.0,5.0,70,0.00,,,0.01,Wunderground v.1.15,2013-07-11 19:48:00,
2013-07-11 15:56:00,73.2,62.4,29.80,NW,308,3.0,4.0,69,0.00,,,0.01,Wunderground v.1.15,2013-07-11 19:56:00,
2013-07-11 16:02:00,73.4,62.6,29.80,North,350,2.0,5.0,69,0.00,,,0.01,Wunderground v.1.15,2013-07-11 20:02:00,
2013-07-11 16:08:00,73.5,61.9,29.81,NW,321,3.0,5.0,67,0.00,,,0.01,Wunderground v.1.15,2013-07-11 20:08:00,
2013-07-11 16:14:00,73.1,62.3,29.81,North,355,4.0,5.0,69,0.00,,,0.01,Wunderground v.1.15,2013-07-11 20:14:00,
2013-07-11 16:20:00,73.1,63.5,29.81,NNW,331,4.0,8.0,72,0.00,,,0.01,Wunderground v.1.15,2013-07-11 20:20:00,
2013-07-11 16:26:00,72.9,62.9,29.81,NNE,12,4.0,8.0,71,0.00,,,0.01,Wunderground v.1.15,2013-07-11 20:26:00,
2013-07-11 16:35:00,73.1,62.0,29.81,NNW,347,6.0,11.0,69,0.00,,,0.01,weatherlink.com 1.10,2013-07-11 20:35:00,
2013-07-11 16:42:00,73.1,63.1,29.81,NW,325,5.0,5.0,71,0.00,,,0.01,Wunderground v.1.15,2013-07-11 20:42:00,
2013-07-11 16:48:00,73.3,62.5,29.81,North,5,5.0,7.0,69,0.00,,,0.01,Wunderground v.1.15,2013-07-11 20:48:00,
2013-07-11 16:54:00,73.5,62.7,29.81,NW,317,4.0,5.0,69,0.00,,,0.01,Wunderground v.1.15,2013-07-11 20:54:00,
2013-07-11 17:00:00,73.7,62.5,29.81,NW,317,3.0,6.0,68,0.00,,,0.01,Wunderground v.1.15,2013-07-11 21:00:00,
2013-07-11 17:06:00,74.0,64.0,29.81,NW,325,4.0,6.0,71,0.00,,,0.01,Wunderground v.1.15,2013-07-11 21:06:00,
2013-07-11 17:14:00,74.0,64.0,29.81,NNW,348,4.0,5.0,71,0.00,,,0.01,Wunderground v.1.15,2013-07-11 21:14:00,
2013-07-11 17:20:00,73.7,63.3,29.81,NNW,348,4.0,4.0,70,0.00,,,0.01,Wunderground v.1.15,2013-07-11 21:20:00,
2013-07-11 17:26:00,73.6,63.6,29.81,North,355,4.0,5.0,71,0.00,,,0.01,Wunderground v.1.15,2013-07-11 21:26:00,
2013-07-11 17:32:00,73.7,64.1,29.81,NNE,16,4.0,5.0,72,0.00,,,0.01,Wunderground v.1.15,2013-07-11 21:32:00,
2013-07-11 17:38:00,73.2,63.2,29.81,North,355,4.0,5.0,71,0.00,,,0.01,Wunderground v.1.15,2013-07-11 21:38:00,
2013-07-11 17:46:00,73.3,62.9,29.81,North,349,5.0,6.0,70,0.00,,,0.01,Wunderground v.1.15,2013-07-11 21:46:00,
2013-07-11 17:52:00,73.5,63.5,29.81,NNW,348,4.0,5.0,71,0.00,,,0.01,Wunderground v.1.15,2013-07-11 21:52:00,
2013-07-11 17:58:00,73.8,62.6,29.81,NNE,16,4.0,5.0,68,0.00,,,0.01,Wunderground v.1.15,2013-07-11 21:58:00,
2013-07-11 18:04:00,73.9,63.1,29.81,North,360,4.0,11.0,69,0.00,,,0.01,Wunderground v.1.15,2013-07-11 22:04:00,
2013-07-11 18:10:00,74.1,63.3,29.82,North,355,4.0,11.0,69,0.00,,,0.01,Wunderground v.1.15,2013-07-11 22:10:00,
2013-07-11 18:18:00,73.5,61.9,29.82,North,360,5.0,11.0,67,0.00,,,0.01,Wunderground v.1.15,2013-07-11 22:18:00,
2013-07-11 18:24:00,73.8,63.0,29.82,NNW,333,4.0,11.0,69,0.00,,,0.01,Wunderground v.1.15,2013-07-11 22:24:00,
2013-07-11 18:30:00,73.8,63.0,29.82,NNE,13,4.0,11.0,69,0.00,,,0.01,Wunderground v.1.15,2013-07-11 22:30:00,
2013-07-11 18:38:00,73.7,62.9,29.82,NNE,26,4.0,11.0,69,0.00,,,0.01,Wunderground v.1.15,2013-07-11 22:38:00,
2013-07-11 18:44:00,73.5,62.7,29.82,NNE,13,4.0,11.0,69,0.00,,,0.01,Wunderground v.1.15,2013-07-11 22:44:00,
2013-07-11 18:54:00,73.0,63.0,29.83,North,9,5.0,11.0,71,0.00,,,0.01,Wunderground v.1.15,2013-07-11 22:54:00,
2013-07-11 19:00:00,73.2,62.8,29.83,North,5,4.0,6.0,70,0.00,,,0.01,Wunderground v.1.15,2013-07-11 23:00:00,
2013-07-11 19:06:00,73.2,62.8,29.83,North,10,5.0,6.0,70,0.00,,,0.01,Wunderground v.1.15,2013-07-11 23:06:00,
2013-07-11 19:12:00,73.0,63.0,29.83,NNE,24,4.0,6.0,71,0.00,,,0.01,Wunderground v.1.15,2013-07-11 23:12:00,
2013-07-11 19:18:00,72.6,63.1,29.83,NNE,14,5.0,6.0,72,0.00,,,0.01,Wunderground v.1.15,2013-07-11 23:18:00,
2013-07-11 19:24:00,72.4,62.5,29.83,NNE,18,4.0,6.0,71,0.00,,,0.01,Wunderground v.1.15,2013-07-11 23:24:00,
2013-07-11 19:30:00,72.6,62.7,29.83,NNE,13,4.0,4.0,71,0.00,,,0.01,Wunderground v.1.15,2013-07-11 23:30:00,
2013-07-11 19:35:00,72.6,63.0,29.83,NNE,13,4.0,6.0,71,0.00,,,0.01,weatherlink.com 1.10,2013-07-11 23:35:00,
2013-07-11 19:42:00,72.6,62.7,29.83,NNE,19,2.0,3.0,71,0.00,,,0.01,Wunderground v.1.15,2013-07-11 23:42:00,
2013-07-11 19:48:00,72.3,62.8,29.83,NNE,17,3.0,5.0,72,0.00,,,0.01,Wunderground v.1.15,2013-07-11 23:48:00,
2013-07-11 19:54:00,72.1,63.0,29.83,North,360,3.0,4.0,73,0.00,,,0.01,Wunderground v.1.15,2013-07-11 23:54:00,
2013-07-11 20:01:00,72.0,62.5,29.83,NNW,347,3.0,3.0,72,0.00,,,0.01,Wunderground v.1.15,2013-07-12 00:01:00,
2013-07-11 20:08:00,71.7,63.0,29.84,NNW,344,3.0,4.0,74,0.00,,,0.01,Wunderground v.1.15,2013-07-12 00:08:00,
2013-07-11 20:14:00,71.3,62.6,29.83,NNW,347,3.0,5.0,74,0.00,,,0.01,Wunderground v.1.15,2013-07-12 00:14:00,
2013-07-11 20:20:00,70.7,62.8,29.84,NNW,340,4.0,4.0,76,0.00,,,0.01,Wunderground v.1.15,2013-07-12 00:20:00,
2013-07-11 20:26:00,70.3,62.7,29.84,NNW,346,4.0,4.0,77,0.00,,,0.01,Wunderground v.1.15,2013-07-12 00:26:00,
2013-07-11 20:36:00,69.7,63.0,29.84,NNW,339,3.0,5.0,79,0.00,,,0.01,weatherlink.com 1.10,2013-07-12 00:36:00,
2013-07-11 20:42:00,69.4,63.0,29.84,North,5,2.0,3.0,80,0.00,,,0.01,Wunderground v.1.15,2013-07-12 00:42:00,
2013-07-11 20:48:00,69.0,62.9,29.84,NNW,344,2.0,3.0,81,0.00,,,0.01,Wunderground v.1.15,2013-07-12 00:48:00,
2013-07-11 20:54:00,68.7,63.0,29.85,North,360,3.0,4.0,82,0.00,,,0.01,Wunderground v.1.15,2013-07-12 00:54:00,
2013-07-11 21:00:00,68.5,63.1,29.85,North,355,3.0,4.0,83,0.00,,,0.01,Wunderground v.1.15,2013-07-12 01:00:00,
2013-07-11 21:06:00,68.2,63.0,29.85,NNE,19,4.0,5.0,83,0.00,,,0.01,weatherlink.com 1.10,2013-07-12 01:06:00,
2013-07-11 21:12:00,67.7,62.7,29.85,North,5,2.0,2.0,84,0.00,,,0.01,Wunderground v.1.15,2013-07-12 01:12:00,
2013-07-11 21:18:00,67.3,62.6,29.85,North,5,1.0,2.0,85,0.00,,,0.01,Wunderground v.1.15,2013-07-12 01:18:00,
2013-07-11 21:24:00,66.9,62.6,29.85,North,5,0.0,1.0,86,0.00,,,0.01,Wunderground v.1.15,2013-07-12 01:24:00,
2013-07-11 21:30:00,66.6,62.6,29.85,North,5,1.0,2.0,87,0.00,,,0.01,Wunderground v.1.15,2013-07-12 01:30:00,
2013-07-11 21:36:00,66.3,62.0,29.85,North,5,0.0,4.0,87,0.00,,,0.01,weatherlink.com 1.10,2013-07-12 01:36:00,
2013-07-11 21:42:00,66.1,62.4,29.86,North,5,1.0,1.0,88,0.00,,,0.01,Wunderground v.1.15,2013-07-12 01:42:00,
2013-07-11 21:48:00,65.9,62.6,29.86,North,5,0.0,1.0,89,0.00,,,0.01,Wunderground v.1.15,2013-07-12 01:48:00,
2013-07-11 21:54:00,65.8,62.5,29.86,North,5,0.0,2.0,89,0.00,,,0.01,Wunderground v.1.15,2013-07-12 01:54:00,
2013-07-11 22:00:00,65.6,62.6,29.86,North,5,0.0,2.0,90,0.00,,,0.01,Wunderground v.1.15,2013-07-12 02:00:00,
2013-07-11 22:06:00,65.6,62.9,29.86,North,5,0.0,2.0,91,0.00,,,0.01,Wunderground v.1.15,2013-07-12 02:06:00,
2013-07-11 22:12:00,65.5,62.8,29.86,North,5,1.0,2.0,91,0.00,,,0.01,Wunderground v.1.15,2013-07-12 02:12:00,
2013-07-11 22:18:00,65.5,62.8,29.86,North,5,1.0,4.0,91,0.00,,,0.01,Wunderground v.1.15,2013-07-12 02:18:00,
2013-07-11 22:24:00,65.4,62.7,29.86,North,9,1.0,3.0,91,0.00,,,0.01,Wunderground v.1.15,2013-07-12 02:24:00,
2013-07-11 22:30:00,65.3,62.6,29.86,NE,35,2.0,3.0,91,0.00,,,0.01,Wunderground v.1.15,2013-07-12 02:30:00,
2013-07-11 22:36:00,65.2,63.0,29.86,North,360,0.0,4.0,92,0.00,,,0.01,weatherlink.com 1.10,2013-07-12 02:36:00,
2013-07-11 22:42:00,65.2,62.8,29.86,North,5,1.0,2.0,92,0.00,,,0.01,Wunderground v.1.15,2013-07-12 02:42:00,
2013-07-11 22:48:00,65.1,62.7,29.86,North,9,1.0,2.0,92,0.00,,,0.01,Wunderground v.1.15,2013-07-12 02:48:00,
2013-07-11 22:54:00,64.9,62.5,29.86,North,10,1.0,1.0,92,0.00,,,0.01,Wunderground v.1.15,2013-07-12 02:54:00,
2013-07-11 23:02:00,64.7,62.6,29.86,NNE,31,1.0,2.0,93,0.00,,,0.01,Wunderground v.1.15,2013-07-12 03:02:00,
2013-07-11 23:08:00,64.4,62.3,29.86,NE,35,1.0,2.0,93,0.00,,,0.01,Wunderground v.1.15,2013-07-12 03:08:00,
2013-07-11 23:14:00,64.3,62.2,29.86,NE,40,1.0,1.0,93,0.00,,,0.01,Wunderground v.1.15,2013-07-12 03:14:00,
2013-07-11 23:20:00,64.1,62.0,29.85,NE,44,1.0,2.0,93,0.00,,,0.01,Wunderground v.1.15,2013-07-12 03:20:00,
2013-07-11 23:26:00,64.0,61.9,29.86,NE,53,1.0,2.0,93,0.00,,,0.01,Wunderground v.1.15,2013-07-12 03:26:00,
2013-07-11 23:32:00,63.8,62.0,29.86,NE,49,1.0,1.0,94,0.00,,,0.01,Wunderground v.1.15,2013-07-12 03:32:00,
2013-07-11 23:38:00,63.7,61.9,29.86,NE,50,1.0,1.0,94,0.00,,,0.01,Wunderground v.1.15,2013-07-12 03:38:00,
2013-07-11 23:44:00,63.5,61.7,29.86,NE,46,1.0,1.0,94,0.00,,,0.01,Wunderground v.1.15,2013-07-12 03:44:00,
2013-07-11 23:50:00,63.6,61.8,29.86,NE,46,1.0,1.0,94,0.00,,,0.01,Wunderground v.1.15,2013-07-12 03:50:00,
2013-07-11 23:56:00,63.5,61.7,29.86,ENE,64,0.0,1.0,94,0.00,,,0.01,Wunderground v.1.15,2013-07-12 03:56:00,